Temperature
17 16 16 16 16 16 16 16 16 16 16 16 16 16 16 16 16 16 17 17 17 17 17 17 17 17 17 17 17 17 17 17 17 17 16 16 16 16 16 16 16 16 16
16 16 16 16 16 16 16 16 16 16 16 16 16 16 16 16 16 16 16 17 17 17 17 17 17 17 16 16 16 17 17 17 17 17 17 16 16 16 16 16 16 16 16
16 16 15 15 15 15 15 15 15 15 15 15 15 15 15 16 16 16 16 16 16 16 16 16 16 16 16 16 16 16 16 17 17 17 17 16 16 16 16 16 16 16 16
16 15 15 15 15 15 15 14 14 14 14 15 15 15 15 15 15 16 16 16 16 16 16 16 16 16 16 16 16 16 16 16 16 16 16 16 16 16 16 16 16 16 16
15 15 15 15 14 14 14 14 14 14 14 14 14 14 15 15 15 15 15 16 16 16 16 16 16 16 16 16 16 16 16 16 16 16 16 16 16 16 16 16 16 16 16
15 15 14 14 14 14 14 14 13 13 14 14 14 14 14 14 15 15 15 15 15 16 16 16 16 16 16 16 16 16 16 16 16 16 16 16 16 16 16 16 16 16 16
15 14 14 14 14 13 13 13 13 13 13 13 13 14 14 14 14 14 14 15 15 15 15 15 15 15 15 15 15 15 16 16 16 16 16 16 16 16 16 16 16 16 16
14 14 14 13 13 13 13 13 13 13 13 13 13 13 13 13 13 14 14 14 14 15 15 15 15 15 15 15 15 15 15 16 16 16 16 16 16 16 16 16 16 16 16
14 14 13 13 13 13 13 12 12 12 12 12 12 13 13 13 13 13 13 14 14 14 14 14 15 15 15 15 15 15 15 15 15 15 15 16 16 16 16 16 16 16 16
14 14 13 13 13 12 12 12 12 12 12 12 12 12 12 12 12 13 13 13 13 13 14 14 14 14 15 15 15 15 15 15 15 15 15 15 15 16 16 16 16 16 16
14 13 13 13 13 12 12 12 12 12 12 12 11 11 12 12 12 12 12 13 13 13 13 14 14 14 14 14 14 15 15 15 15 15 15 15 15 15 15 16 16 16 16
14 13 13 13 12 12 12 12 11 11 11 11 11 11 11 11 11 11 11 12 13 13 13 13 13 13 14 14 14 14 14 15 15 15 15 15 15 15 15 15 15 15 15
14 13 13 13 12 12 12 12 11 11 11 11 11 11 11 11 11 11 11 11 11 12 13 13 13 13 13 13 14 14 14 14 14 14 14 14 14 15 15 15 15 15 15
14 13 13 13 12 12 12 12 11 11 11 11 11 11 11 11 10 10 10 10 10 11 12 12 12 12 12 12 13 13 13 13 14 14 14 14 14 14 14 15 15 15 15
14 13 13 13 12 12 12 12 12 11 11 11 11 11 11 10 10 10 10 10 10 10 10 12 12 12 12 12 12 12 12 13 13 13 13 14 14 14 14 14 14 15 15
14 13 13 13 12 12 12 12 12 11 11 11 11 11 11 10 10 10 10 10 10 10 10 11 11 11 11 11 12 12 12 12 12 13 13 13 13 13 14 14 14 14 14
14 14 13 13 13 12 12 12 12 11 11 11 11 11 11 11 10 10 10 10 10 10 10 10 11 11 11 11 11 11 12 12 12 12 12 13 13 13 13 13 14 14 14
14 14 13 13 13 13 13 12 12 12 12 11 11 11 11 11 10 10 10 10 10 10 10 10 10 11 11 11 11 11 11 11 12 12 12 12 13 13 13 13 13 14 14
14 14 14 14 13 13 13 12 12 12 12 12 11 11 11 11 11 10 10 10 10 10 10 10 10 10 10 10 10 11 11 11 11 11 12 12 12 12 12 13 13 13 13
15 15 14 14 14 13 13 13 12 12 12 12 11 11 11 11 11 10 10 10 10 10 10 9 10 10 10 10 10 10 10 11 11 11 11 11 12 12 12 12 12 12 13
15 15 14 14 14 13 13 13 13 12 12 12 12 11 11 11 11 10 10 10 10 10 9 9 9 9 10 10 10 10 10 10 10 11 11 11 11 11 12 12 12 12 12
15 15 15 14 14 14 13 13 13 12 12 12 12 12 11 11 11 10 10 10 10 9 9 9 9 9 10 9 9 9 9 9 10 10 10 11 11 11 11 11 12 12 12
16 15 15 15 14 14 14 13 13 12 12 12 12 12 12 11 11 10 10 10 10 9 9 9 9 9 9 9 9 9 9 9 9 9 9 10 11 11 11 11 11 11 12
16 15 15 15 14 14 14 13 13 12 12 12 12 12 11 11 11 10 10 10 10 10 9 9 9 9 9 9 9 8 8 8 9 9 9 9 10 11 11 11 11 11 12
16 15 15 15 14 14 14 13 13 12 12 12 12 12 12 11 11 11 10 10 10 10 10 9 9 9 9 9 8 8 8 8 8 9 9 9 9 10 10 11 11 11 11
15 15 15 14 14 14 14 13 13 12 12 12 12 12 12 12 11 11 10 10 10 10 10 9 9 9 9 9 8 8 8 8 8 8 9 9 9 9 9 10 11 11 11
Wind_Speed
4 4 4 5 5 4 3 2 2 2 2 3 3 2 1 2 3 3 4 6 7 10 14 15 16 16 17 17 17 17 17 16 16 16 15 15 15 15 14 13 13 12 12
6 5 4 4 4 4 3 3 3 2 2 2 3 3 2 2 3 4 4 6 8 10 12 14 14 14 15 16 17 18 18 18 17 17 17 17 17 16 15 14 14 13 13
8 6 4 3 4 5 5 5 4 4 3 2 2 3 3 3 4 4 4 5 7 9 11 12 13 13 15 15 16 17 19 19 19 19 19 18 18 18 17 16 15 15 14
8 7 4 3 4 5 5 3 3 3 3 3 2 3 3 3 4 5 5 5 6 6 8 10 13 13 14 16 17 18 19 20 21 21 21 20 20 19 19 18 17 16 16
8 8 5 4 5 5 3 2 3 2 2 3 2 2 3 3 4 4 4 4 5 6 7 9 11 13 14 15 17 18 18 20 21 22 22 22 21 21 21 20 19 18 18
8 8 5 5 5 4 3 3 3 3 2 2 2 3 3 3 3 3 4 4 4 4 5 6 7 8 11 13 15 17 19 19 20 21 23 23 23 22 22 22 22 21 20
7 7 5 4 4 3 2 2 2 3 4 3 2 3 3 3 4 4 5 5 6 5 2 2 3 5 6 9 12 15 17 19 19 20 22 23 24 24 24 24 24 23 22
6 6 5 3 3 3 3 3 2 2 3 3 2 2 3 4 4 5 5 6 7 7 6 4 3 3 4 5 7 10 12 16 18 20 22 23 24 26 26 26 25 25 24
5 5 6 4 3 3 2 2 2 2 2 2 2 2 2 0 2 3 4 5 6 6 6 6 6 5 4 3 4 6 8 11 15 19 21 22 24 25 26 27 27 26 26
3 5 6 5 4 3 3 2 2 1 2 1 1 2 1 1 0 2 3 4 5 5 6 5 6 6 6 5 4 6 7 8 10 14 17 20 23 25 26 27 27 27 28
1 3 5 5 4 3 3 3 2 2 1 1 1 1 1 2 1 0 2 4 4 4 5 4 5 6 8 7 6 6 8 8 8 9 11 14 18 21 23 24 26 27 28
1 2 4 4 4 3 3 3 3 3 2 2 1 1 1 1 1 1 1 2 3 3 4 3 3 5 7 7 7 9 8 7 7 8 8 10 14 17 20 22 23 25 27
2 3 3 3 3 4 4 4 3 3 3 3 3 2 2 2 2 2 2 2 2 3 3 3 3 4 6 7 8 10 9 9 7 7 8 9 10 13 16 19 21 23 25
4 3 4 4 4 4 4 4 3 3 3 3 4 3 3 3 3 3 3 2 2 2 2 3 3 3 5 7 8 9 8 8 8 7 7 8 8 9 12 16 19 21 22
3 4 4 4 4 4 4 4 3 3 3 4 4 4 3 3 3 4 4 4 2 3 3 3 2 3 6 7 9 8 7 9 9 8 7 8 8 8 9 11 15 18 21
4 4 5 4 4 4 4 4 3 3 4 4 3 4 4 4 4 4 4 5 5 5 4 3 4 4 6 8 9 8 8 10 9 9 9 9 10 10 11 12 14 16 18
6 6 6 5 5 5 4 4 5 4 5 5 4 5 6 5 4 4 4 4 5 5 6 6 4 4 4 6 7 8 8 8 8 10 10 11 12 12 13 13 14 16 17
7 7 6 5 6 5 5 5 6 6 6 6 6 6 7 5 5 5 4 5 6 7 7 8 5 4 5 6 6 6 7 7 8 10 12 12 12 13 14 14 14 15 17
7 6 6 7 7 6 6 6 7 7 7 7 7 7 7 6 7 6 6 6 6 6 7 7 7 4 5 4 5 5 6 5 7 9 11 11 12 13 14 14 14 14 16
8 8 7 8 7 7 7 7 7 7 8 8 8 8 8 8 9 8 7 8 7 6 6 7 7 6 6 5 4 5 5 4 5 6 8 9 10 11 12 13 14 15 15
9 8 7 7 7 7 7 8 8 8 8 9 8 8 9 10 12 10 8 8 7 7 6 7 7 6 6 5 5 4 5 6 5 4 4 5 5 6 8 10 12 14 15
8 7 8 8 8 8 10 12 10 8 8 9 10 9 9 10 12 13 13 13 11 9 9 8 8 9 10 8 6 6 5 5 5 3 3 5 4 6 7 9 12 14 16
8 8 9 9 10 11 13 13 13 10 10 10 10 10 9 9 10 9 10 12 12 13 14 11 12 12 11 9 7 8 7 7 8 5 3 7 6 8 9 12 15 17 18
7 8 9 9 10 12 14 14 14 11 11 11 12 12 11 11 10 10 9 10 10 11 11 11 12 13 12 11 9 9 9 8 8 7 6 6 7 8 8 10 15 18 18
7 8 7 9 10 12 14 15 13 8 10 12 12 12 12 13 14 13 10 11 12 11 11 14 15 15 15 15 11 7 7 7 8 7 6 6 6 6 7 8 12 15 16
8 8 9 9 10 12 13 15 13 8 10 11 10 11 14 15 15 13 11 11 13 13 10 8 8 10 10 11 12 11 10 9 8 7 6 6 5 4 5 4 5 7 8
Wind_Direction
106 95 78 67 59 59 62 57 49 35 23 15 5 349 309 298 286 266 266 263 244 229 219 210 205 204 204 201 200 198 195 194 191 190 189 187 183 181 181 181 178 176 175
118 107 88 72 60 57 66 72 66 62 45 29 7 350 324 306 296 288 274 271 258 241 226 219 214 210 210 209 209 206 203 201 198 196 196 194 191 189 188 188 186 183 183
123 115 98 80 65 70 79 77 64 57 44 28 6 349 338 315 298 290 280 268 263 249 236 227 222 219 219 219 218 216 211 208 204 201 201 200 198 195 194 193 192 191 190
127 115 101 87 78 75 75 78 54 55 38 23 359 342 340 324 313 301 288 275 265 257 247 238 233 229 228 226 224 223 219 215 209 206 205 205 204 202 200 198 198 197 196
128 117 108 100 93 76 62 67 55 56 36 5 340 346 350 342 333 330 316 297 275 260 253 250 247 240 236 233 231 230 228 223 216 212 211 210 209 207 205 204 203 202 202
132 120 111 103 96 81 61 57 65 50 39 350 345 358 351 355 358 7 355 347 325 286 260 253 253 249 242 237 236 233 232 229 225 220 216 215 213 211 210 208 207 206 206
138 130 121 110 97 92 82 75 78 56 30 2 19 360 352 5 23 30 23 26 17 1 343 290 265 255 254 249 244 238 234 231 228 227 222 219 218 216 213 212 211 210 209
153 150 142 132 119 107 84 71 76 81 34 26 56 55 8 356 359 12 19 31 24 24 22 10 352 313 278 265 260 253 244 238 234 231 229 224 222 220 216 214 213 213 212
175 170 163 151 142 131 124 109 98 106 81 28 41 103 105 333 320 336 2 15 13 23 18 13 16 5 341 297 278 272 259 247 239 232 230 228 226 224 221 218 216 215 215
184 184 179 170 160 151 152 157 129 112 118 71 28 39 81 154 100 333 333 351 359 14 8 7 7 5 0 344 313 296 282 267 250 239 232 230 229 227 225 223 221 219 218
209 197 186 176 170 169 174 163 142 136 135 146 135 88 70 56 70 134 316 332 340 339 344 345 356 3 3 358 340 321 305 288 272 259 245 234 232 231 228 227 227 225 222
249 204 180 179 181 183 186 183 172 169 175 171 172 170 164 159 174 167 250 302 314 311 322 327 348 355 360 2 355 348 336 314 289 274 265 250 238 235 234 231 231 231 228
210 211 183 184 191 201 200 186 182 191 191 192 198 206 207 212 191 180 203 260 289 302 315 314 317 335 351 354 350 350 351 349 326 292 272 265 256 243 238 236 234 233 232
209 206 194 200 206 206 203 191 197 206 202 210 218 212 217 225 207 199 198 204 284 301 294 288 305 306 331 337 336 341 338 338 336 316 292 277 271 263 252 244 238 236 235
209 202 200 204 211 210 207 195 213 221 213 223 231 229 230 235 220 219 214 204 213 273 289 277 284 297 313 315 315 320 317 319 320 311 299 289 280 271 264 258 250 241 237
204 197 205 211 217 218 213 205 222 228 225 236 232 234 240 242 233 224 219 217 215 226 257 263 258 277 293 298 301 304 302 305 304 301 293 285 278 273 268 262 257 249 240
203 205 210 214 222 227 220 213 228 232 236 247 245 239 248 245 244 239 225 222 221 217 249 270 258 268 275 281 295 299 296 292 292 292 290 283 275 270 267 263 258 251 246
209 209 211 218 227 231 225 224 238 238 236 247 251 246 253 251 246 245 236 235 234 224 236 268 274 268 260 271 279 286 289 287 283 285 283 279 272 268 265 262 259 253 249
212 212 212 222 230 233 232 233 236 244 244 246 248 246 252 248 252 249 243 245 246 243 233 251 271 267 266 266 276 279 281 281 284 282 280 276 272 269 265 260 257 254 251
213 217 218 225 232 236 238 241 240 244 248 250 249 247 249 245 248 251 251 249 248 250 246 251 266 270 269 266 258 269 281 278 284 286 280 277 274 273 267 261 257 255 253
217 219 222 232 235 237 241 240 240 243 247 254 255 251 249 249 248 246 248 249 245 248 251 255 264 270 269 263 258 256 270 281 279 264 275 273 271 274 272 267 263 259 255
218 219 226 232 238 241 242 240 237 242 245 249 257 258 256 257 258 256 252 249 239 241 248 251 259 261 266 263 259 256 262 274 280 248 247 270 264 271 270 267 265 263 259
219 225 232 233 240 246 247 249 246 241 245 248 250 255 259 256 249 254 258 261 256 246 237 242 254 258 262 259 255 258 250 250 258 258 254 274 266 267 269 267 265 263 260
220 229 236 236 242 250 248 249 250 247 248 250 248 247 251 256 252 246 255 261 263 260 250 245 247 253 255 256 248 254 261 262 262 258 234 261 268 265 269 267 264 262 261
224 228 235 236 241 252 250 248 246 246 249 252 251 246 243 250 250 240 244 254 264 267 258 246 243 249 253 252 246 247 249 250 265 264 220 234 262 266 267 265 262 259 259
229 233 240 240 240 250 253 249 243 241 249 255 256 249 239 239 246 238 235 242 255 262 264 265 257 258 258 258 246 235 239 246 256 263 227 215 247 254 271 256 256 256 257
Height
1560 1561 1561 1561 1561 1561 1561 1561 1561 1561 1562 1562 1562 1563 1564 1564 1565 1566 1567 1568 1569 1571 1572 1574 1575 1577 1579 1580 1582 1584 1586 1588 1590 1591 1593 1595 1597 1599 1600 1602 1603 1605 1606
1559 1559 1560 1559 1559 1560 1560 1560 1559 1559 1559 1560 1560 1561 1561 1562 1563 1563 1564 1565 1567 1568 1569 1571 1573 1575 1577 1578 1580 1582 1584 1586 1588 1590 1592 1594 1596 1598 1600 1601 1603 1605 1606
1558 1558 1558 1558 1558 1558 1558 1558 1558 1557 1557 1557 1558 1558 1559 1559 1560 1560 1561 1562 1564 1565 1567 1568 1570 1572 1574 1576 1578 1580 1582 1584 1586 1588 1591 1593 1595 1597 1598 1600 1602 1604 1606
1558 1558 1557 1557 1557 1557 1556 1556 1556 1556 1556 1556 1556 1556 1556 1557 1557 1558 1558 1560 1561 1562 1564 1565 1567 1568 1570 1573 1575 1577 1579 1581 1584 1586 1588 1591 1593 1595 1597 1599 1601 1603 1604
1557 1557 1557 1556 1556 1555 1555 1555 1554 1554 1554 1554 1554 1554 1554 1554 1555 1555 1556 1557 1558 1559 1560 1562 1563 1565 1567 1569 1571 1573 1575 1578 1580 1583 1585 1588 1590 1593 1595 1597 1599 1601 1603
1557 1556 1556 1555 1555 1554 1554 1553 1553 1553 1553 1553 1553 1553 1552 1553 1553 1553 1553 1554 1555 1556 1557 1559 1560 1562 1563 1565 1567 1569 1571 1573 1576 1579 1581 1584 1587 1589 1592 1594 1597 1599 1601
1556 1556 1555 1555 1554 1553 1553 1552 1552 1552 1552 1551 1551 1551 1551 1551 1552 1552 1552 1552 1553 1553 1554 1556 1557 1558 1560 1561 1563 1565 1567 1569 1571 1574 1577 1580 1583 1585 1588 1591 1593 1596 1598
1555 1555 1555 1554 1553 1553 1552 1552 1551 1551 1551 1550 1551 1550 1551 1552 1551 1551 1551 1551 1551 1552 1553 1554 1555 1556 1557 1558 1559 1561 1563 1565 1567 1569 1572 1575 1578 1581 1584 1587 1589 1592 1595
1555 1554 1554 1554 1553 1553 1552 1551 1551 1551 1550 1550 1550 1550 1550 1550 1551 1551 1551 1551 1551 1551 1551 1552 1553 1553 1554 1555 1556 1557 1559 1560 1562 1564 1566 1569 1572 1575 1578 1582 1585 1587 1590
1553 1553 1553 1553 1553 1552 1552 1551 1550 1550 1550 1549 1549 1549 1550 1550 1550 1550 1551 1550 1551 1551 1551 1551 1551 1551 1552 1552 1553 1554 1556 1557 1558 1560 1561 1564 1567 1570 1573 1575 1579 1582 1585
1552 1552 1552 1552 1552 1551 1551 1550 1550 1550 1549 1549 1549 1549 1549 1549 1549 1549 1549 1549 1550 1550 1549 1549 1549 1550 1550 1550 1550 1551 1552 1553 1554 1555 1557 1558 1561 1564 1566 1569 1572 1576 1579
1550 1550 1550 1550 1550 1550 1550 1550 1549 1549 1548 1548 1548 1548 1548 1548 1548 1548 1547 1547 1547 1547 1548 1548 1548 1548 1548 1548 1548 1548 1549 1550 1550 1551 1552 1554 1555 1557 1560 1563 1566 1569 1572
1548 1548 1549 1549 1549 1549 1549 1548 1548 1548 1547 1547 1547 1547 1547 1547 1546 1546 1546 1545 1544 1544 1544 1545 1545 1545 1545 1545 1545 1545 1546 1546 1546 1547 1548 1549 1551 1552 1554 1556 1559 1562 1565
1546 1546 1547 1547 1547 1547 1547 1547 1547 1546 1546 1546 1546 1546 1545 1545 1545 1544 1544 1544 1542 1542 1541 1542 1542 1542 1542 1542 1542 1542 1542 1542 1543 1543 1544 1545 1546 1547 1548 1550 1552 1555 1558
1544 1544 1544 1545 1545 1545 1545 1545 1545 1545 1544 1544 1544 1544 1544 1543 1543 1543 1542 1542 1542 1540 1538 1538 1539 1539 1539 1538 1538 1538 1538 1538 1539 1539 1539 1540 1541 1542 1543 1544 1546 1548 1551
1541 1542 1542 1542 1542 1543 1542 1542 1542 1542 1542 1542 1542 1542 1541 1541 1541 1540 1540 1539 1539 1538 1536 1535 1535 1535 1535 1534 1534 1534 1534 1534 1534 1534 1535 1535 1536 1537 1537 1539 1540 1542 1544
1539 1539 1540 1540 1540 1540 1540 1540 1540 1540 1539 1539 1539 1539 1538 1538 1538 1537 1537 1536 1535 1534 1532 1531 1531 1531 1530 1530 1530 1529 1529 1529 1529 1529 1530 1530 1531 1531 1532 1533 1534 1535 1536
1537 1537 1537 1537 1538 1538 1538 1537 1537 1537 1537 1536 1536 1536 1535 1535 1534 1534 1533 1532 1531 1530 1529 1527 1526 1526 1526 1525 1525 1524 1524 1523 1523 1524 1524 1524 1525 1525 1526 1526 1527 1528 1529
1534 1534 1534 1535 1535 1535 1535 1534 1534 1534 1533 1533 1532 1532 1531 1531 1530 1529 1528 1528 1527 1526 1525 1523 1521 1521 1520 1520 1519 1519 1519 1518 1518 1518 1518 1518 1518 1519 1519 1519 1520 1520 1521
1531 1531 1531 1531 1531 1531 1531 1531 1531 1530 1530 1529 1529 1528 1527 1526 1525 1525 1524 1523 1522 1521 1520 1518 1516 1515 1515 1515 1514 1513 1513 1513 1512 1512 1512 1512 1512 1512 1513 1513 1513 1514 1514
1527 1528 1528 1528 1528 1527 1527 1527 1527 1526 1526 1525 1524 1523 1522 1522 1520 1520 1518 1517 1517 1515 1514 1513 1511 1510 1509 1509 1509 1508 1507 1506 1506 1506 1506 1506 1506 1506 1506 1506 1507 1507 1507
1523 1524 1524 1524 1523 1523 1523 1523 1522 1522 1521 1520 1519 1518 1517 1516 1515 1514 1513 1512 1511 1510 1509 1508 1506 1505 1504 1504 1503 1503 1502 1501 1500 1501 1500 1499 1500 1499 1500 1500 1500 1500 1501
1519 1519 1519 1519 1519 1519 1518 1518 1517 1517 1516 1515 1514 1513 1512 1511 1510 1509 1508 1507 1506 1504 1503 1502 1500 1499 1499 1498 1498 1497 1496 1495 1494 1494 1494 1492 1493 1492 1493 1493 1493 1493 1494
1514 1514 1514 1514 1514 1513 1513 1513 1512 1511 1510 1509 1508 1507 1506 1505 1504 1503 1502 1500 1499 1498 1497 1496 1494 1493 1493 1493 1492 1491 1490 1488 1487 1488 1488 1485 1485 1485 1486 1485 1486 1486 1486
1509 1509 1509 1508 1508 1507 1508 1507 1506 1504 1503 1502 1501 1501 1500 1498 1498 1497 1495 1494 1492 1492 1491 1490 1488 1487 1487 1486 1486 1485 1483 1482 1480 1480 1481 1480 1478 1478 1477 1477 1478 1479 1479
1503 1503 1503 1502 1502 1501 1501 1501 1500 1498 1496 1495 1494 1493 1493 1492 1491 1490 1489 1487 1485 1485 1485 1483 1482 1481 1480 1479 1479 1478 1477 1476 1474 1473 1473 1473 1472 1472 1470 1470 1471 1471 1472